TimeCST,TemperatureF,Dew PointF,Humidity,Sea Level PressureIn,VisibilityMPH,Wind Direction,Wind SpeedMPH,Gust SpeedMPH,PrecipitationIn,Events,Conditions,WindDirDegrees,DateUTC
12:53 AM,71.1,70.0,96,30.00,4.0,South,11.5,-,N/A,,Overcast,170,2013-01-12 06:53:00
1:53 AM,71.1,70.0,96,30.01,6.0,SSE,9.2,-,N/A,,Overcast,160,2013-01-12 07:53:00
2:53 AM,70.0,70.0,100,30.00,7.0,SE,5.8,-,N/A,,Overcast,140,2013-01-12 08:53:00
3:38 AM,69.8,69.8,100,30.00,8.0,SSE,6.9,-,N/A,,Overcast,160,2013-01-12 09:38:00
3:53 AM,70.0,69.1,97,30.00,8.0,SSE,6.9,-,N/A,,Overcast,150,2013-01-12 09:53:00
4:03 AM,69.8,69.8,100,29.99,8.0,SSE,6.9,-,N/A,,Overcast,150,2013-01-12 10:03:00
4:27 AM,69.8,69.8,100,29.98,8.0,SE,6.9,-,N/A,,Overcast,130,2013-01-12 10:27:00
4:42 AM,69.8,69.8,100,29.98,7.0,SE,9.2,-,N/A,,Overcast,130,2013-01-12 10:42:00
4:53 AM,69.1,68.0,96,29.98,7.0,SE,10.4,-,N/A,,Overcast,140,2013-01-12 10:53:00
5:25 AM,69.8,68.0,94,29.98,8.0,SE,8.1,-,N/A,,Mostly Cloudy,140,2013-01-12 11:25:00
5:53 AM,69.8,68.0,94,29.99,7.0,SE,8.1,-,N/A,,Mostly Cloudy,140,2013-01-12 11:53:00
6:53 AM,69.1,68.0,96,30.01,7.0,SSE,6.9,-,N/A,,Mostly Cloudy,150,2013-01-12 12:53:00
7:00 AM,69.8,68.0,94,30.01,7.0,SSE,5.8,-,N/A,,Overcast,150,2013-01-12 13:00:00
7:53 AM,69.1,68.0,96,30.02,6.0,SE,6.9,-,N/A,,Overcast,140,2013-01-12 13:53:00
8:53 AM,70.0,68.0,93,30.01,7.0,SE,9.2,-,N/A,,Overcast,140,2013-01-12 14:53:00
9:00 AM,71.6,69.8,94,30.02,8.0,SE,11.5,-,N/A,,Overcast,140,2013-01-12 15:00:00
9:53 AM,72.0,69.1,91,30.04,9.0,SE,11.5,-,N/A,,Mostly Cloudy,140,2013-01-12 15:53:00
10:53 AM,73.9,68.0,82,30.01,10.0,South,11.5,17.3,N/A,,Mostly Cloudy,170,2013-01-12 16:53:00
11:00 AM,75.2,68.0,78,30.01,10.0,SSE,6.9,17.3,N/A,,Mostly Cloudy,150,2013-01-12 17:00:00
11:10 AM,75.2,68.0,78,30.00,10.0,SSE,12.7,17.3,N/A,,Scattered Clouds,160,2013-01-12 17:10:00
11:53 AM,77.0,68.0,74,29.98,10.0,South,12.7,-,N/A,,Partly Cloudy,170,2013-01-12 17:53:00
12:53 PM,75.9,64.0,67,29.94,10.0,SSE,17.3,27.6,N/A,,Scattered Clouds,160,2013-01-12 18:53:00
1:53 PM,75.9,64.9,69,29.93,10.0,South,23.0,26.5,N/A,,Partly Cloudy,180,2013-01-12 19:53:00
2:53 PM,77.0,63.0,62,29.91,10.0,South,21.9,29.9,N/A,,Partly Cloudy,170,2013-01-12 20:53:00
3:53 PM,75.0,64.0,69,29.92,10.0,South,16.1,23.0,N/A,,Partly Cloudy,170,2013-01-12 21:53:00
4:53 PM,73.9,66.0,76,29.92,10.0,SSE,13.8,-,N/A,,Mostly Cloudy,160,2013-01-12 22:53:00
5:53 PM,73.0,66.9,81,29.90,10.0,South,8.1,-,N/A,,Mostly Cloudy,170,2013-01-12 23:53:00
6:01 PM,73.4,66.2,78,29.91,10.0,SSE,8.1,-,N/A,,Mostly Cloudy,160,2013-01-13 00:01:00
6:53 PM,73.4,66.2,78,29.91,10.0,SSE,12.7,-,N/A,,Overcast,150,2013-01-13 00:53:00
7:50 PM,71.6,66.2,83,29.91,10.0,SSE,8.1,-,N/A,,Overcast,150,2013-01-13 01:50:00
7:53 PM,72.0,66.9,84,29.91,10.0,SSE,10.4,-,N/A,,Overcast,150,2013-01-13 01:53:00
8:53 PM,72.0,68.0,87,29.90,10.0,SE,13.8,-,N/A,,Overcast,140,2013-01-13 02:53:00
9:44 PM,71.6,68.0,88,29.89,10.0,SSE,11.5,21.9,N/A,,Overcast,150,2013-01-13 03:44:00
9:53 PM,71.1,68.0,90,29.89,10.0,SSE,12.7,19.6,N/A,,Overcast,160,2013-01-13 03:53:00
10:13 PM,71.6,68.0,88,29.89,10.0,SSE,12.7,19.6,N/A,,Overcast,160,2013-01-13 04:13:00
10:53 PM,72.0,68.0,87,29.91,10.0,South,11.5,18.4,N/A,,Overcast,170,2013-01-13 04:53:00
11:53 PM,71.1,68.0,90,29.90,10.0,SSE,9.2,-,N/A,,Overcast,160,2013-01-13 05:53:00